Weather in Kamensk

Russia / Irkutsk Oblast     56°10′24″N   99°07′18″E
temp.,
°C
wind,
m/s
gust,
m/s
humid.,
%
clouds,
%
prec.,
mm/h
press.,
hPa
HPBL,
m
8 august, mon
mon823:00+12sw2172100 0.0 101112
02:00+11sw118455 0.0 101111
05:00+10sw119426 0.0 101110
08:00+14sw11752 0.0 1011157
11:00+21w23504 0.0 1011977
14:00+24wnw22394 0.0 10101969
17:00+25nnw223547 0.0 10092406
20:00+19n2465100 0.0 1010105
9 august, tue
tue923:00+17nne0169100 0.0 101111
02:00+16nne117299 0.0 101111
05:00+15ene117692 0.0 101110
08:00+16e0078100 0.0 101119
11:00+21e115522 0.0 1011601
14:00+24ne123999 0.0 10092458
17:00+17sse226841 0.1 100952
20:00+19w016684 0.1 100911
10 august, wed
wed1023:00+15n017951 0.1 100911
02:00+12s009368 0.7 100911
05:00+12n019585 0.1 100910
08:00+14wnw1191100 0.3 100989
11:00+19nw236267 0.0 1008741
14:00+21w365266 0.4 10071401
17:00+16nw379094 1.4 1008294
20:00+16wnw259198 1.9 1008222
11 august, thu
thu1123:00+13sw22977 1.0 100829
02:00+11w119814 1.0 100912
05:00+10wnw11986 0.0 100810
08:00+13wnw129529 0.0 1009165
11:00+18wnw246935 0.1 1009990
14:00+22nw344663 0.3 10091977
17:00+21nw3448100 0.0 10091218
20:00+18nw116971 0.0 100917
12 august, fri
fri1223:00+13wnw00894 0.0 101010
02:00+11sse11935 0.0 100910
05:00+11se11945 0.0 100910
08:00+14se1181100 0.0 1009105
11:00+21sse115288 0.0 1008641
14:00+24nnw134153 0.0 10071862
17:00+20nw2467100 0.1 1006120
20:00+16nw2692100 3.4 1008147